Starlink 32851

operational
NORAD ID: 62810 Int'l Des: 2025-018 Owner: SPXS Country: US Constellation: starlink
LEOCIRCULAR

Über Starlink 32851

Beschreibung wird geladen...

Live-Position

3D-Globus wird geladen...

Nächste Überflüge

Höhenverlauf

Altitude vs Time

uPlot chart will show altitude changes over time

Zweizeiliger Elementsatz

1 62810U 25018E 25351.68297224 .00024128 00000-0 82257-3 0 9993
2 62810 53.1624 330.4520 0001550 89.7258 270.3920 15.30260720 50618
Epoch: 17. Dez. 2025 • Age: 20 hours

Aktueller Status

Höhe 483.3 km
Geschwindigkeit 7.62 km/s
Subsatellitenpunkt -26.53°S, 100.85°W
Startdatum 24. Jan. 2025
Alter 0.8 years
Typ internet

Technische Details

Klassifizierung Payload
Masse 730.00 kg
Trockenmasse 700.00 kg
Gesamtmasse 730.00 kg
Länge 0.30 m
Durchmesser 4.10 m
Spannweite 29.00 m
Form Box + pan
Hersteller SPXS
Bus-Typ Starlink V2M
Phasenstatus In Orbit
Besitzer/Staat SPXS/US

Große Konstellationen

Loading constellations...